Weather History for KSMF - June, 2013

Change the Weather History Date:

Thursday, June 13, 2013

  Actual Average Record
Temperature  
Mean Temperature 69 °F -  
Max Temperature 87 °F 87 °F 108 °F (1975)
Min Temperature 52 °F 54 °F 45 °F (1952)
Cooling Degree Days 4    
Growing Degree Days 19 (Base 50)    
Moisture  
Dew Point 44 °F    
Average Humidity 45    
Maximum Humidity 80    
Minimum Humidity 14    
Precipitation  
Precipitation 0.00 in - - ()
Sea Level Pressure  
Sea Level Pressure 29.99 in    
Wind  
Wind Speed 5 mph (NW)    
Max Wind Speed 10 mph    
Max Gust Speed 18 mph    
Visibility 10 miles    
Events      
Averages and records for this station are not official NWS values.
T = Trace of Precipitation, MM = Missing Value Source: NWS Daily Summary

Daily Weather History Graph

Daily Weather History Graph

Search for Another Location

Airport or City:

Trip Planner

Search our weather history database for the weather conditions in past years. The results will help you decide how hot, cold, wet, or windy it might be!

Date:

Astronomy

Jun. 13, 2013 Rise Set
Actual Time 5:41 AM PDT 8:32 PM PDT
Civil Twilight 5:09 AM PDT 9:04 PM PDT
Nautical Twilight 4:29 AM PDT 9:44 PM PDT
Astronomical Twilight 3:43 AM PDT 10:29 PM PDT
Moon 10:20 AM PDT (6/13) 11:44 PM PDT (6/13)
Length of Visible Light 15h 54m
Length of Day
14h 51m
Waxing Crescent, 22% of the Moon is Illuminated
Jun 13
Waxing Crescent
Jun 16
First Quarter
Jun 23
Full
Jun 29
Last Quarter
Jul 8
New

Hourly Weather History & Observations

Time (PDT) Temp. Dew Point Humidity Pressure Visibility Wind Dir Wind Speed Gust Speed Precip Events Conditions
12:53 AM 60.1 °F 46.9 °F 62% 29.92 in 10.0 mi SE 9.2 mph - N/A   Clear
1:53 AM 59.0 °F 46.0 °F 62% 29.93 in 10.0 mi SSE 6.9 mph - N/A   Clear
2:53 AM 57.9 °F 46.0 °F 65% 29.94 in 10.0 mi South 6.9 mph - N/A   Clear
3:53 AM 57.0 °F 46.0 °F 67% 29.95 in 10.0 mi South 3.5 mph - N/A   Clear
4:53 AM 54.0 °F 45.0 °F 72% 29.97 in 10.0 mi Calm Calm - N/A   Clear
5:53 AM 52.0 °F 46.0 °F 80% 29.99 in 10.0 mi Calm Calm - N/A   Clear
6:53 AM 57.0 °F 48.9 °F 74% 30.01 in 10.0 mi Calm Calm - N/A   Clear
7:53 AM 61.0 °F 48.0 °F 62% 30.02 in 10.0 mi Calm Calm - N/A   Clear
8:53 AM 64.0 °F 48.0 °F 56% 30.04 in 10.0 mi Calm Calm - N/A   Clear
9:53 AM 69.1 °F 46.9 °F 45% 30.05 in 10.0 mi NW 9.2 mph - N/A   Clear
10:53 AM 73.0 °F 48.9 °F 42% 30.05 in 10.0 mi North 5.8 mph - N/A   Clear
11:53 AM 75.9 °F 46.9 °F 36% 30.05 in 10.0 mi NNW 8.1 mph - N/A   Clear
12:53 PM 79.0 °F 44.1 °F 29% 30.04 in 10.0 mi NNW 8.1 mph - N/A   Clear
1:53 PM 82.0 °F 44.1 °F 26% 30.04 in 10.0 mi Variable 4.6 mph - N/A   Clear
2:53 PM 82.9 °F 41.0 °F 23% 30.02 in 10.0 mi North 10.4 mph 18.4 mph N/A   Clear
3:53 PM 84.9 °F 37.9 °F 19% 30.00 in 10.0 mi Variable 5.8 mph - N/A   Clear
4:53 PM 84.9 °F 30.0 °F 14% 29.99 in 10.0 mi Calm Calm - N/A   Clear
5:53 PM 86.0 °F 35.1 °F 16% 29.97 in 10.0 mi North 4.6 mph - N/A   Clear
6:53 PM 84.9 °F 34.0 °F 16% 29.96 in 10.0 mi Calm Calm - N/A   Clear
7:53 PM 82.9 °F 36.0 °F 19% 29.96 in 10.0 mi Calm Calm - N/A   Clear
8:53 PM 73.9 °F 45.0 °F 35% 29.96 in 10.0 mi NNW 3.5 mph - N/A   Clear
9:53 PM 71.1 °F 46.0 °F 41% 29.96 in 10.0 mi WNW 3.5 mph - N/A   Clear
10:53 PM 68.0 °F 51.1 °F 55% 29.96 in 10.0 mi SW 6.9 mph - N/A   Clear
11:53 PM 66.0 °F 48.9 °F 54% 29.95 in 10.0 mi WNW 8.1 mph - N/A   Clear